Location: Rounton
(54.4000°N, 1.3500°W)
Time: 12:42:22
(UTC+00:00)

Transit 2A - Pass Details

Date: 05 December 2021
Orbit: 591 x 967 km, 66.7° (Epoch: 17 January)

Event Time Altitude Azimuth Distance (km) Brightness Sun altitude
Rises 10:10:05 0° 311° (NW) 3,666 8.9 9.9°
Reaches altitude 10° 10:13:55 10° 290° (WNW) 2,708 8.5 10.1°
Maximum altitude 10:17:09 15° 259° (W) 2,367 8.5 10.3°
Drops below altitude 10° 10:20:20 10° 228° (SW) 2,648 9.1 10.5°
Sets 10:24:01 0° 205° (SSW) 3,532 10.1 10.7°
